[[{"header":{"parameterUnit":"m.s-1","parameterCategory":2,"la1":30.2992,"la2":30.254,"lo1":-89.0895,"lo2":-89.0443,"dy":0.0025,"dx":0.0025,"nx":19,"ny":19,"refTime":"2026-04-10T09:00:00:Z","depth":"0","parameterNumber":2,"parameterNumberName":"U-component_of_CURRENTS"},"data":[0,0,0,0.3546,0.3551,0.3758,0.3759,0.4006,0.4008,0,0,0,0,0,0,0,0,0,0,0,0.3467,0.3468,0.3546,0.3551,0.3758,0.3759,0.4005,0.4008,0,0,0,0,0,0,0,0,0,0,0,0.3466,0.3468,0.347,0.3552,0.3757,0.3759,0.4005,0.3853,0,0,0,0,0,0,0,0,0,0,0.3654,0.3564,0.3468,0.347,0.3553,0.3757,0.3759,0.3846,0.3862,0.3907,0,0.3939,0,0.3984,0.4024,0.4025,0,0,0,0.3552,0.355,0.3628,0.347,0.3555,0.3757,0.3665,0.3855,0.3874,0.3928,0.3943,0.3953,0.3988,0.4025,0.4026,0.424,0.4241,0,0,0.354,0.3487,0.3615,0.3639,0.361,0.3658,0.3671,0.3867,0.3874,0.3944,0.3959,0.3992,0.4027,0.4029,0.424,0.4241,0,0,0,0.3507,0.3478,0.3551,0.3628,0.3671,0.3664,0.3679,0.3864,0.3895,0.3962,0.3995,0.4028,0.4031,0.4239,0.424,0.4227,0,0,0,0.35,0.346,0.3546,0.3514,0.3667,0.3768,0.3671,0.3881,0.3905,0.3994,0.4028,0.4034,0.4239,0.424,0.4226,0.4187,0,0,0,0.3457,0.3455,0.3484,0.3511,0.3604,0.3767,0.3808,0.3887,0.3926,0.4025,0.4034,0.4238,0.424,0.4225,0.4187,0.4235,0,0,0,0.3389,0.3436,0.3482,0.3556,0.3602,0.3754,0.3807,0.3919,0.4002,0.403,0.4239,0.424,0.4225,0.4187,0.4234,0.4247,0.4251,0,0,0.3414,0.3437,0.3487,0.3535,0.3663,0.3725,0.3855,0.3976,0.4036,0.4172,0.4178,0.4226,0.4187,0.4234,0.4321,0.4323,0,0,0,0.3474,0.3507,0.3558,0.3642,0.3753,0.3845,0.3963,0.4021,0.4145,0.4093,0.4257,0.4232,0.4262,0.427,0.4272,0.4054,0.4246,0.4246,0.4246,0.3416,0.3505,0.3584,0.3705,0.3794,0.3938,0.402,0.412,0.4179,0.4227,0.4245,0.4298,0.4307,0.4309,0.4084,0.4291,0.4291,0.4291,0.4291,0.3444,0.3488,0.359,0.3691,0.3798,0.3902,0.4085,0.414,0.4262,0.4272,0.4304,0.4284,0.431,0.407,0.429,0.429,0.429,0.429,0.429,0.3391,0.3421,0.3485,0.3602,0.3717,0.3874,0.4006,0.4128,0.4234,0.4267,0.4315,0.4316,0.4085,0.4301,0.4301,0.4301,0.4301,0.4301,0.4301,0.3288,0.3362,0.3397,0.3527,0.3594,0.3734,0.3957,0.4077,0.423,0.4288,0.429,0.4076,0.4301,0.4278,0.4302,0.4302,0.4302,0.4302,0.4302,0.3217,0.3233,0.3283,0.3334,0.3497,0.3556,0.3813,0.4042,0.4187,0.4259,0.4074,0.433,0.4337,0.4336,0.4315,0.4347,0.4347,0.4347,0.4347,0.3123,0.3154,0.3168,0.3222,0.3329,0.347,0.3538,0.3765,0.394,0.393,0.3967,0.3923,0.3931,0.391,0.3919,0.3888,0.3811,0.381,0.3809,0.3045,0.3072,0.3028,0.3102,0.3233,0.3319,0.3288,0.3356,0.3616,0.3761,0.3653,0.3676,0.3585,0.3616,0.3566,0.3595,0.3541,0,0]},{"header":{"parameterUnit":"m.s-1","parameterCategory":2,"la1":30.2992,"la2":30.254,"lo1":-89.0895,"lo2":-89.0443,"dy":0.0025,"dx":0.0025,"nx":19,"ny":19,"refTime":"2026-04-10T09:00:00:Z","depth":"0","parameterNumber":3,"parameterNumberName":"V-component_of_CURRENTS"},"data":[0,0,0,-0.0364,-0.0367,-0.0565,-0.0566,-0.084,-0.0842,0,0,0,0,0,0,0,0,0,0,0,-0.0289,-0.0289,-0.0364,-0.0368,-0.0565,-0.0566,-0.084,-0.0842,0,0,0,0,0,0,0,0,0,0,0,-0.0289,-0.0289,-0.029,-0.0368,-0.0565,-0.0566,-0.0839,-0.0693,0,0,0,0,0,0,0,0,0,0,-0.0502,-0.0408,-0.0289,-0.029,-0.0369,-0.0564,-0.0567,-0.0687,-0.0702,-0.0746,0,-0.0749,0,-0.079,-0.0858,-0.0859,0,0,0,-0.0403,-0.0394,-0.0451,-0.029,-0.037,-0.0564,-0.0486,-0.0696,-0.0714,-0.0767,-0.0753,-0.0764,-0.0795,-0.0859,-0.086,-0.1,-0.1,0,0,-0.0392,-0.0333,-0.0438,-0.0461,-0.0387,-0.0479,-0.0491,-0.0707,-0.0708,-0.0754,-0.077,-0.0799,-0.0861,-0.0863,-0.1,-0.1,0,0,0,-0.0337,-0.0325,-0.0378,-0.045,-0.0478,-0.0484,-0.0498,-0.07,-0.0717,-0.0773,-0.0803,-0.0862,-0.0865,-0.1,-0.1,-0.0822,0,0,0,-0.0332,-0.0291,-0.0371,-0.034,-0.0472,-0.0585,-0.0486,-0.0702,-0.0728,-0.0801,-0.0862,-0.0867,-0.1001,-0.1,-0.0827,-0.0733,0,0,0,-0.0286,-0.0287,-0.0299,-0.0336,-0.0408,-0.0583,-0.0615,-0.0709,-0.0744,-0.0859,-0.0868,-0.1001,-0.1,-0.0832,-0.0743,-0.0669,0,0,0,-0.0237,-0.0227,-0.0297,-0.0301,-0.0405,-0.0489,-0.0614,-0.0699,-0.0784,-0.0863,-0.1001,-0.1,-0.0833,-0.0749,-0.0675,-0.0449,-0.0403,0,0,-0.0198,-0.0221,-0.0227,-0.0294,-0.0332,-0.0466,-0.0513,-0.0677,-0.0796,-0.0939,-0.0943,-0.0825,-0.0743,-0.067,-0.042,-0.0374,0,0,0,-0.0198,-0.0193,-0.0218,-0.0259,-0.0345,-0.0411,-0.0573,-0.0635,-0.0759,-0.0839,-0.0865,-0.082,-0.0779,-0.0657,-0.0621,-0.0632,-0.0998,-0.0998,-0.0998,-0.0067,-0.013,-0.0132,-0.0212,-0.0258,-0.0385,-0.0436,-0.0558,-0.0686,-0.0705,-0.0704,-0.0566,-0.0435,-0.0406,-0.042,-0.0749,-0.0749,-0.0748,-0.0748,0.0007,0.0005,-0.0058,-0.008,-0.0154,-0.0201,-0.0327,-0.0402,-0.0458,-0.0584,-0.0553,-0.0512,-0.0355,-0.0386,-0.0737,-0.0739,-0.074,-0.0741,-0.0742,0.0094,0.0085,0.0067,0.0049,0.0032,-0.0074,-0.0038,-0.0168,-0.0293,-0.026,-0.0178,-0.0179,-0.018,-0.0256,-0.0255,-0.0254,-0.0254,-0.0253,-0.0253,0.0192,0.017,0.0206,0.0181,0.0196,0.0201,0.013,0.0128,0.0107,0.004,0.004,-0.0117,-0.0417,-0.0407,-0.0241,-0.0243,-0.0245,-0.0246,-0.0246,0.0289,0.0288,0.0353,0.0383,0.0427,0.0544,0.0476,0.0571,0.0529,0.0581,0.0374,0.0184,0.0147,0.0118,0.0138,0.0435,0.0435,0.0435,0.0435,0.0375,0.0367,0.0481,0.0562,0.0654,0.07,0.0981,0.1052,0.0908,0.0839,0.0644,0.0587,0.0559,0.0537,0.0498,0.0521,0.0908,0.0908,0.0908,0.0452,0.0474,0.058,0.0638,0.0745,0.0912,0.1235,0.1515,0.1277,0.0912,0.0588,0.0569,0.0454,0.0412,0.0339,0.0287,0.0307,0,0]}],[{"header":{"parameterUnit":"m.s-1","parameterCategory":2,"la1":30.2992,"la2":30.254,"lo1":-89.0895,"lo2":-89.0443,"dy":0.0025,"dx":0.0025,"nx":19,"ny":19,"refTime":"2026-04-10T09:00:00:Z","depth":"2","parameterNumber":2,"parameterNumberName":"U-component_of_CURRENTS"},"data":[0,0,0,0.259,0.2592,0.27,0.27,0.2773,0.2773,0,0,0,0,0,0,0,0,0,0,0,0.2545,0.2545,0.259,0.2593,0.27,0.2701,0.2773,0.2773,0,0,0,0,0,0,0,0,0,0,0,0.2544,0.2545,0.2546,0.2593,0.27,0.2701,0.2773,0.2708,0,0,0,0,0,0,0,0,0,0,0.2612,0.2573,0.2545,0.2546,0.2593,0.27,0.2701,0.2706,0.2712,0.2705,0,0.2718,0,0.2748,0.2777,0.2777,0,0,0,0.2595,0.2568,0.2603,0.2546,0.2594,0.27,0.2652,0.271,0.2717,0.2713,0.2719,0.2723,0.275,0.2777,0.2777,0.2904,0.2905,0,0,0.2589,0.2559,0.2599,0.2608,0.2616,0.2649,0.2656,0.2715,0.2714,0.2719,0.2725,0.2751,0.2777,0.2778,0.2903,0.2904,0,0,0,0.257,0.2555,0.259,0.2604,0.263,0.2652,0.266,0.2712,0.2725,0.2726,0.2752,0.2777,0.2778,0.2901,0.2903,0.2875,0,0,0,0.2567,0.2544,0.2587,0.257,0.2629,0.268,0.2654,0.2721,0.2729,0.2751,0.2777,0.2778,0.29,0.2902,0.2874,0.2915,0,0,0,0.2541,0.2541,0.2553,0.2568,0.2615,0.268,0.2698,0.2724,0.2744,0.2777,0.2779,0.2899,0.2902,0.2872,0.2911,0.2926,0,0,0,0.2507,0.2527,0.2552,0.2578,0.2614,0.2669,0.2698,0.2747,0.2775,0.2778,0.29,0.2903,0.2871,0.2909,0.2924,0.2804,0.2803,0,0,0.2516,0.2526,0.2543,0.2569,0.262,0.2655,0.2724,0.2779,0.2815,0.2873,0.2877,0.2874,0.2911,0.2926,0.2946,0.2941,0,0,0,0.2535,0.2538,0.2554,0.2595,0.2643,0.27,0.2762,0.2795,0.2878,0.2845,0.2933,0.296,0.2967,0.2893,0.289,0.2915,0.2914,0.2914,0.2914,0.2495,0.2539,0.2559,0.2611,0.2647,0.2748,0.2799,0.2873,0.2887,0.294,0.2976,0.3035,0.2956,0.2952,0.2996,0.2996,0.2996,0.2996,0.2996,0.2483,0.2491,0.2547,0.2583,0.2663,0.2737,0.2849,0.29,0.3016,0.3017,0.3023,0.2919,0.2947,0.2995,0.2995,0.2996,0.2996,0.2996,0.2996,0.2427,0.2442,0.2477,0.2549,0.2638,0.275,0.2841,0.2955,0.3026,0.3064,0.2998,0.2996,0.3005,0.3064,0.3064,0.3065,0.3065,0.3065,0.3065,0.2365,0.2402,0.2423,0.2511,0.2559,0.2678,0.2861,0.2935,0.3009,0.3021,0.3019,0.3059,0.3057,0.3014,0.3069,0.3068,0.3068,0.3067,0.3067,0.2291,0.2324,0.2346,0.2378,0.2482,0.2486,0.2687,0.2789,0.29,0.2904,0.2974,0.2974,0.2982,0.2983,0.2941,0.2974,0.2974,0.2974,0.2974,0.2227,0.2254,0.2249,0.2264,0.2306,0.2377,0.2326,0.2423,0.2622,0.2669,0.2682,0.2599,0.261,0.2593,0.2603,0.2551,0.2484,0.2483,0.2482,0.2169,0.2191,0.2143,0.2179,0.2195,0.2203,0.2057,0.1979,0.2172,0.2459,0.2565,0.2947,0.2857,0.2862,0.2863,0.2869,0.2797,0,0]},{"header":{"parameterUnit":"m.s-1","parameterCategory":2,"la1":30.2992,"la2":30.254,"lo1":-89.0895,"lo2":-89.0443,"dy":0.0025,"dx":0.0025,"nx":19,"ny":19,"refTime":"2026-04-10T09:00:00:Z","depth":"2","parameterNumber":3,"parameterNumberName":"V-component_of_CURRENTS"},"data":[0,0,0,0.0223,0.0223,0.0192,0.0191,0.0175,0.0175,0,0,0,0,0,0,0,0,0,0,0,0.0227,0.0227,0.0223,0.0223,0.0192,0.0191,0.0174,0.0175,0,0,0,0,0,0,0,0,0,0,0,0.0227,0.0227,0.0227,0.0223,0.0192,0.0191,0.0174,0.0187,0,0,0,0,0,0,0,0,0,0,0.0213,0.0222,0.0227,0.0227,0.0223,0.0192,0.0191,0.0187,0.0186,0.0203,0,0.0207,0,0.0205,0.0176,0.0176,0,0,0,0.0201,0.0223,0.0219,0.0227,0.0223,0.0192,0.02,0.0186,0.0186,0.0202,0.0207,0.0206,0.0205,0.0176,0.0176,0.0241,0.0241,0,0,0.0203,0.0215,0.022,0.0219,0.0228,0.0201,0.0199,0.0185,0.0189,0.0207,0.0206,0.0204,0.0176,0.0177,0.024,0.0241,0,0,0,0.0223,0.0216,0.0211,0.0219,0.022,0.0201,0.0198,0.0189,0.0188,0.0205,0.0204,0.0177,0.0177,0.0239,0.024,0.0353,0,0,0,0.0223,0.0229,0.0212,0.0217,0.022,0.0202,0.0202,0.0189,0.0187,0.0204,0.0177,0.0177,0.0239,0.024,0.0349,0.0389,0,0,0,0.0226,0.023,0.023,0.0218,0.0216,0.0202,0.02,0.0188,0.0188,0.0176,0.0177,0.0238,0.024,0.0345,0.0383,0.0436,0,0,0,0.0231,0.0263,0.0231,0.0273,0.0216,0.0252,0.0199,0.0207,0.0203,0.0177,0.0239,0.024,0.0344,0.0379,0.0432,0.0477,0.0499,0,0,0.028,0.0269,0.0297,0.0268,0.0323,0.0254,0.0312,0.0272,0.0227,0.024,0.0241,0.035,0.0382,0.0435,0.0551,0.0571,0,0,0,0.0319,0.0338,0.0351,0.0371,0.0376,0.0388,0.0343,0.0334,0.0329,0.0235,0.0344,0.0361,0.0391,0.0409,0.0426,0.0246,0.0246,0.0246,0.0246,0.039,0.0397,0.0455,0.0466,0.0487,0.0478,0.0489,0.0465,0.0412,0.0425,0.0449,0.056,0.0581,0.0594,0.0448,0.0449,0.0449,0.045,0.045,0.0478,0.052,0.0532,0.059,0.0601,0.064,0.0641,0.0608,0.0624,0.0552,0.0576,0.0522,0.0619,0.0459,0.0457,0.0456,0.0455,0.0454,0.0454,0.0528,0.0555,0.058,0.066,0.0733,0.0747,0.0832,0.079,0.0728,0.0749,0.0737,0.0735,0.0626,0.0756,0.0756,0.0757,0.0757,0.0757,0.0758,0.0572,0.0601,0.0667,0.0747,0.0817,0.0912,0.0937,0.0953,0.0919,0.0857,0.0857,0.0663,0.0653,0.0642,0.0764,0.0763,0.0762,0.0762,0.0761,0.0647,0.0648,0.0751,0.0823,0.0991,0.1136,0.1145,0.1174,0.1139,0.114,0.0917,0.0911,0.0874,0.0859,0.0852,0.1022,0.1022,0.1022,0.1022,0.0691,0.0701,0.0835,0.0961,0.1127,0.1245,0.1384,0.1344,0.1212,0.109,0.1087,0.1032,0.1021,0.0986,0.0968,0.0961,0.1159,0.1159,0.1159,0.0744,0.0779,0.0882,0.0998,0.1193,0.1368,0.1494,0.1422,0.1195,0.1161,0.1076,0.1038,0.0945,0.0932,0.0862,0.0841,0.0821,0,0]}],[{"header":{"parameterUnit":"m.s-1","parameterCategory":2,"la1":30.2992,"la2":30.254,"lo1":-89.0895,"lo2":-89.0443,"dy":0.0025,"dx":0.0025,"nx":19,"ny":19,"refTime":"2026-04-10T09:00:00:Z","depth":"4","parameterNumber":2,"parameterNumberName":"U-component_of_CURRENTS"},"data":[0,0,0,0.142,0.1422,0.1532,0.1532,0.1594,0.1594,0,0,0,0,0,0,0,0,0,0,0,0.1381,0.1382,0.1419,0.1422,0.1532,0.1532,0.1594,0.1594,0,0,0,0,0,0,0,0,0,0,0,0.1381,0.1382,0.1383,0.1422,0.1532,0.1532,0.1594,0.1532,0,0,0,0,0,0,0,0,0,0,0.1436,0.1435,0.1382,0.1383,0.1423,0.1532,0.1532,0.153,0.1536,0.1519,0,0.1536,0,0.1562,0.1596,0.1596,0,0,0,0.1429,0.1431,0.1433,0.1383,0.1424,0.1531,0.1484,0.1534,0.154,0.1526,0.1537,0.154,0.1563,0.1596,0.1596,0.1651,0.1651,0,0,0.1423,0.1427,0.1429,0.1437,0.1451,0.1481,0.1487,0.1539,0.1559,0.1538,0.1542,0.1564,0.1596,0.1596,0.165,0.1651,0,0,0,0.1401,0.1423,0.1427,0.1434,0.1458,0.1484,0.1492,0.1557,0.1551,0.1543,0.1564,0.1596,0.1596,0.165,0.1651,0.1713,0,0,0,0.1397,0.1409,0.1424,0.1432,0.1457,0.1527,0.1509,0.1548,0.1554,0.1564,0.1596,0.1597,0.1649,0.165,0.171,0.1748,0,0,0,0.1377,0.1408,0.1414,0.1431,0.1472,0.1526,0.1525,0.155,0.1566,0.1596,0.1597,0.1649,0.165,0.1708,0.1744,0.179,0,0,0,0.1386,0.14,0.1415,0.1435,0.1471,0.1519,0.1526,0.1586,0.1616,0.1596,0.1649,0.165,0.1707,0.1741,0.1787,0.1556,0,0,0,0.1399,0.1403,0.1408,0.1422,0.1456,0.1504,0.157,0.1619,0.1621,0.1627,0.1629,0.1711,0.1743,0.179,0.1616,0,0,0,0,0.1407,0.141,0.1422,0.145,0.1487,0.1567,0.1617,0.164,0.1695,0.1642,0.1714,0.1732,0.1759,0.1615,0.1655,0.1655,0.1655,0.1655,0.1655,0.1421,0.1424,0.1443,0.1467,0.1517,0.1616,0.1679,0.1723,0.1715,0.1756,0.1785,0.1866,0.1715,0.178,0.178,0.178,0.1781,0.1781,0.1781,0.1416,0.1406,0.1454,0.1481,0.1563,0.1643,0.1747,0.1788,0.1871,0.1841,0.1864,0.1692,0.1787,0.1786,0.1785,0.1784,0.1784,0.1783,0.1783,0.1391,0.1386,0.1427,0.1487,0.1581,0.1687,0.1776,0.1874,0.1933,0.198,0.1829,0.1916,0.191,0.1999,0.1999,0.2,0.2,0.2,0.2,0.1343,0.1376,0.141,0.1489,0.1541,0.1652,0.1817,0.1873,0.197,0.1887,0.2013,0.1939,0.1932,0.1923,0.2006,0.2005,0.2005,0.2004,0.2004,0.1277,0.1322,0.1348,0.1396,0.1488,0.1536,0.1725,0.1794,0.1847,0.1834,0.1825,0.1832,0.1792,0.1789,0.1772,0.1815,0.1812,0.181,0,0.1234,0.1255,0.1275,0.1301,0.1332,0.1442,0.1466,0.1567,0.1664,0.1605,0.1833,0.1818,0.1822,0.1771,0.1764,0.174,0,0,0,0.1198,0.1204,0.1191,0.1218,0.1228,0.1303,0.1454,0.1438,0.1658,0.1649,0.1743,0.1761,0.1895,0.2024,0.198,0.1971,0.1954,0,0]},{"header":{"parameterUnit":"m.s-1","parameterCategory":2,"la1":30.2992,"la2":30.254,"lo1":-89.0895,"lo2":-89.0443,"dy":0.0025,"dx":0.0025,"nx":19,"ny":19,"refTime":"2026-04-10T09:00:00:Z","depth":"4","parameterNumber":3,"parameterNumberName":"V-component_of_CURRENTS"},"data":[0,0,0,0.0311,0.0312,0.0334,0.0334,0.0345,0.0345,0,0,0,0,0,0,0,0,0,0,0,0.03,0.03,0.0311,0.0312,0.0334,0.0334,0.0345,0.0345,0,0,0,0,0,0,0,0,0,0,0,0.03,0.03,0.0301,0.0312,0.0334,0.0334,0.0345,0.0331,0,0,0,0,0,0,0,0,0,0,0.031,0.0306,0.03,0.0301,0.0312,0.0334,0.0334,0.033,0.0331,0.0332,0,0.0339,0,0.0347,0.0346,0.0346,0,0,0,0.0305,0.0305,0.0312,0.0301,0.0313,0.0334,0.0322,0.0331,0.0332,0.0334,0.034,0.034,0.0347,0.0346,0.0346,0.0387,0.0387,0,0,0.0303,0.0301,0.0311,0.0314,0.0323,0.0321,0.0323,0.0332,0.0334,0.034,0.0341,0.0347,0.0346,0.0346,0.0386,0.0387,0,0,0,0.0305,0.03,0.0308,0.0313,0.0321,0.0322,0.0324,0.0334,0.0337,0.0341,0.0348,0.0346,0.0346,0.0386,0.0387,0.0442,0,0,0,0.0304,0.0302,0.0307,0.0306,0.0321,0.0331,0.0325,0.0336,0.0338,0.0347,0.0346,0.0346,0.0386,0.0386,0.044,0.0478,0,0,0,0.0298,0.0301,0.0306,0.0306,0.0319,0.0331,0.0334,0.0337,0.0342,0.0346,0.0346,0.0385,0.0386,0.0438,0.0474,0.049,0,0,0,0.0292,0.0316,0.0306,0.0341,0.0319,0.0361,0.0334,0.0355,0.0362,0.0346,0.0386,0.0387,0.0437,0.0471,0.0488,0.0483,0,0,0,0.0321,0.0319,0.0343,0.0335,0.0389,0.0357,0.0406,0.0396,0.0373,0.0379,0.038,0.0441,0.0473,0.0489,0.053,0,0,0,0,0.0353,0.037,0.0385,0.0414,0.0431,0.045,0.0436,0.0426,0.0427,0.0382,0.0441,0.0461,0.0469,0.0459,0.0391,0.039,0.039,0.039,0.039,0.0389,0.0409,0.0459,0.0484,0.0507,0.0515,0.0521,0.0504,0.0474,0.0478,0.0506,0.0559,0.0551,0.0498,0.0498,0.0498,0.0498,0.0499,0.0499,0.0447,0.0483,0.0513,0.0567,0.0588,0.0626,0.0616,0.0591,0.059,0.0555,0.0559,0.0519,0.0504,0.0503,0.0502,0.0502,0.0501,0.0501,0.0501,0.0474,0.0496,0.0533,0.0613,0.0684,0.0705,0.0755,0.0722,0.0658,0.0663,0.0637,0.0597,0.0591,0.0661,0.0662,0.0662,0.0662,0.0662,0.0663,0.0485,0.0524,0.0584,0.0668,0.0737,0.0817,0.084,0.0828,0.0767,0.0712,0.0684,0.0613,0.0608,0.06,0.0666,0.0666,0.0665,0.0665,0.0665,0.0518,0.0535,0.0623,0.0692,0.0845,0.0903,0.0935,0.0888,0.0866,0.0809,0.0722,0.0718,0.0696,0.0689,0.0683,0.0776,0.0776,0.0776,0,0.0533,0.0549,0.0664,0.0772,0.089,0.0954,0.0958,0.0939,0.084,0.0822,0.0842,0.0746,0.0742,0.0718,0.0712,0.0706,0,0,0,0.0555,0.059,0.0669,0.0778,0.0911,0.0945,0.0962,0.0926,0.0867,0.0835,0.0781,0.078,0.075,0.0678,0.0635,0.0629,0.0613,0,0]}]]